Regional Weather Roundup
Issued by NWS Cleveland, OH

Current Version | Previous Version | Text Only | Print | Product List | Glossary On
Versions: 1 2 3 4 5 6 7 8 9 10 11 12 13 14 15 16 17 18 19 20 21 22 23 24 25 26 27 28 29 30 31 32 33 34 35 36 37 38 39 40 41 42 43 44 45 46 47 48 49 50
000 ASUS41 KCLE 072312 RWRCLE OHIO REGIONAL WEATHER ROUNDUP NATIONAL WEATHER SERVICE WILMINGTON, OH 600 PM EST SUN FEB 07 2016 NOTE: "FAIR" INDICATES FEW OR NO CLOUDS BELOW 12,000 FEET WITH NO SIGNIFICANT WEATHER AND/OR OBSTRUCTIONS TO VISIBILITY. OHZ001>008-015>018-024>027-034-035-043-044-080000- NORTHWEST OHIO CITY SKY/WX TMP DP RH WIND PRES REMARKS DEFIANCE FAIR 48 31 51 S12 29.79R FINDLAY FAIR 46 31 55 S14 29.80F TOLEDO EXPRESS CLOUDY 48 29 47 S14G21 29.78S TOLEDO EXEC CLOUDY 47 29 49 S12 29.80S LIMA CLOUDY 47 28 47 S10 29.81S $$ OHZ009>014-019>023-028>033-038-089-080000- NORTHEAST OHIO CITY SKY/WX TMP DP RH WIND PRES REMARKS CLE-HOPKINS MOCLDY 48 26 42 SW14 29.86F CLE-LAKEFRONT FAIR 50 25 37 S14 29.83S CUY CO. ARPT MOCLDY 50 28 43 SW17 29.85S LORAIN-ELYRIA FAIR 47 26 44 SW10 29.84S ASHTABULA FAIR 46 29 51 S8 29.86F AKRON-CANTON CLOUDY 46 25 43 S12 29.87F WOOSTER FAIR 45 27 49 S10 29.87S MANSFIELD FAIR 45 26 47 S13 29.84F YOUNGSTOWN CLOUDY 47 25 42 S7 29.88S $$ OHZ042-051>053-060>062-070>072-077>081-080000- SOUTHWEST OHIO CITY SKY/WX TMP DP RH WIND PRES REMARKS CINC-COVINGTON MOCLDY 49 21 33 S8 29.87 CINC-LUNKEN FAIR 48 23 37 S16 29.89F HAMILTON FAIR 51 21 30 SW7 29.88S DAYTON MOCLDY 48 22 35 S15 29.85S WRIGHT-PAT AFB MOCLDY 49 19 30 S13 29.85S DAYTON GENERAL FAIR 48 20 32 SW12 29.85F WILMINGTON FAIR 42 24 49 S7 29.86F $$ OHZ036-037-039>041-045>050-054>059-063>069-073>076-082>088-080000- CENTRAL AND SOUTHEAST OHIO CITY SKY/WX TMP DP RH WIND PRES REMARKS COLUMBUS MOCLDY 49 19 30 SW10 29.88F OSU AIRPORT FAIR 48 22 35 S12 29.86F BOLTON FIELD CLEAR 46 25 42 SW9 29.87F RICKENBACK AFB FAIR 47 24 40 S9 29.88S NEWARK FAIR 49 24 37 SW8 29.88F MARION FAIR 46 25 43 S13 29.85F LANCASTER FAIR 48 24 39 S7 29.89F ZANESVILLE FAIR 51 21 30 SW5 29.89F NEW PHILLY MOCLDY 49 24 37 SW3 29.90S $$

USA.gov is the U.S. government's official web portal to all federal, state and local government web resources and services.